RH
1 4 6 8 16 30 29 52 45 35 41 48 54 62 55 72 77 88 99 100 94 92 81 76 72 69 71 61 48 43 35 39 53 64 73 79 81 89 87 86 87 86 83 72 79 76 54 23 12
1 4 9 13 29 22 45 59 48 66 68 81 59 74 93 95 100 99 98 100 89 95 80 76 82 86 78 60 56 49 43 43 55 65 76 79 81 85 81 82 81 82 91 88 78 79 67 36 11
3 17 27 26 22 30 36 41 60 61 60 64 55 71 96 100 100 99 100 96 100 90 86 77 80 89 84 64 64 58 47 48 61 70 77 78 85 86 82 80 85 90 93 92 90 93 73 44 18
21 24 20 20 31 37 32 30 34 47 58 63 44 48 87 100 100 98 99 87 100 98 92 93 88 76 79 77 80 57 47 46 62 73 80 83 95 95 90 84 87 95 91 98 94 95 74 53 22
20 19 21 30 33 37 32 29 32 37 32 39 37 43 63 98 99 100 100 100 100 95 97 92 100 99 84 91 91 88 66 52 51 69 76 92 97 98 91 92 93 91 80 99 98 94 71 45 15
18 19 24 30 38 39 38 35 32 24 27 31 42 44 38 41 62 96 100 98 99 98 98 96 98 98 88 86 97 97 94 81 61 56 72 88 89 95 100 83 94 90 90 78 93 98 78 32 18
16 18 24 28 31 29 36 39 31 31 28 26 23 38 28 30 43 56 69 98 100 98 99 90 96 92 81 72 74 99 99 97 93 59 59 66 68 78 88 96 96 94 89 80 99 99 86 48 65
16 18 25 28 32 37 38 39 33 35 27 30 28 28 37 32 30 31 39 40 49 92 99 100 97 96 93 82 82 77 91 98 90 87 80 54 59 65 99 93 94 99 87 87 97 93 55 57 62
15 20 22 26 29 32 39 40 35 35 40 39 37 36 31 28 26 22 23 36 32 33 90 96 99 100 98 92 73 78 74 88 89 81 83 75 59 64 77 90 93 98 93 90 98 63 47 62 59
7 10 24 29 33 36 41 42 43 39 38 41 45 45 46 46 40 36 31 39 47 46 78 100 99 99 100 99 92 94 86 90 72 58 68 82 62 64 79 87 99 94 93 96 58 85 60 32 21
11 15 28 34 34 39 37 38 37 41 41 43 42 46 49 48 45 39 33 31 55 92 100 100 100 98 98 100 97 87 73 76 86 70 47 56 78 66 76 85 93 98 93 99 93 46 45 27 20
13 20 21 22 28 35 33 40 47 48 45 53 58 57 53 47 42 37 32 28 28 39 82 99 100 100 99 99 98 90 72 85 68 87 89 75 73 76 79 90 88 93 100 93 98 84 50 38 23
16 22 26 39 40 32 44 41 48 56 63 66 64 62 58 51 46 41 35 33 29 25 26 38 68 93 100 99 100 96 88 83 85 74 80 81 90 82 79 84 95 99 100 91 98 98 83 50 33
23 21 22 20 17 15 20 48 56 61 65 65 64 63 58 52 44 39 34 27 23 23 24 23 23 33 66 97 99 100 100 98 95 88 84 83 85 93 96 98 95 97 100 94 84 91 95 61 43
21 17 17 15 14 14 18 34 40 61 63 62 61 58 53 47 42 33 27 22 15 14 15 16 20 21 24 41 87 99 93 88 89 90 87 84 88 83 85 89 97 99 99 100 83 96 98 84 64
13 13 6 10 12 13 13 24 40 56 58 56 56 58 53 43 37 28 22 19 15 13 10 10 10 11 17 20 37 74 94 89 82 81 85 84 88 87 90 96 96 93 88 93 83 97 100 99 78
2 2 5 8 11 14 16 25 39 51 57 54 51 52 48 41 28 20 17 13 12 10 9 7 7 7 6 10 18 33 82 92 80 78 76 80 89 90 97 92 98 97 89 80 88 99 99 99 96
13 11 16 17 19 20 22 32 41 50 56 58 55 51 48 40 27 19 14 11 10 9 8 7 7 5 5 4 8 19 30 89 87 74 76 74 78 88 82 83 86 82 96 99 89 95 100 99 98
7 7 15 14 17 20 25 34 52 55 53 48 49 54 61 49 31 19 23 17 13 8 8 8 7 6 5 4 4 9 20 26 95 52 74 76 73 82 79 80 93 99 96 87 94 91 98 100 99
4 4 9 21 28 26 32 36 38 45 48 50 54 57 55 47 37 33 34 27 28 20 10 14 11 8 6 4 4 4 12 23 64 55 72 67 74 94 78 87 98 96 83 78 100 78 95 97 98
4 8 12 22 32 35 49 51 47 47 52 62 64 57 57 48 37 39 34 33 36 42 27 19 19 17 10 5 6 6 6 17 31 48 78 94 56 78 78 76 77 100 78 76 80 78 77 97 92
4 8 12 15 33 37 33 41 35 42 54 57 58 59 56 50 40 42 47 42 42 45 43 32 20 21 21 12 14 13 8 9 20 30 45 86 37 60 75 69 75 93 97 91 95 99 88 98 98
15 5 18 16 23 27 29 64 28 36 38 42 58 65 55 47 44 51 54 55 45 50 52 39 21 18 27 27 31 30 23 10 14 20 21 63 36 33 45 73 64 85 97 84 83 68 70 87 97
20 7 21 22 22 41 30 47 23 30 35 29 45 57 52 49 51 55 57 52 53 59 53 34 25 18 17 34 42 40 36 25 11 18 19 22 58 25 29 36 52 79 90 94 83 74 60 87 81
25 13 16 19 43 41 26 38 12 23 24 28 51 53 50 51 60 70 58 59 72 71 61 42 32 23 15 18 38 40 42 36 24 13 20 17 30 41 22 36 48 83 93 97 83 78 65 73 80
28 28 13 30 65 40 27 36 14 20 20 34 58 54 59 64 68 56 75 88 86 80 57 52 49 32 17 17 26 36 41 42 36 21 16 20 18 22 30 25 50 53 90 89 86 77 75 65 75
29 32 30 40 43 59 40 28 20 16 24 36 59 63 63 64 68 95 96 92 88 74 60 63 59 47 33 23 19 33 30 43 39 34 19 16 20 17 12 19 29 33 46 86 99 89 81 70 65
32 33 35 37 52 63 43 39 18 17 25 38 50 64 65 75 82 86 88 85 74 67 72 73 68 69 57 38 25 30 25 36 43 36 30 18 17 20 17 11 19 34 81 97 69 87 85 96 79
34 36 43 44 42 62 85 40 16 18 21 39 53 56 56 66 54 55 63 86 76 74 76 81 84 83 68 46 28 28 21 28 43 40 32 30 22 18 20 18 13 15 30 79 97 76 78 82 97
34 36 46 50 49 45 49 42 11 16 21 44 46 43 59 57 79 88 86 76 77 84 92 100 100 93 73 45 33 27 19 25 46 49 39 29 29 24 20 19 19 15 12 24 64 66 59 76 91
Wind_Speed
0 2 4 9 7 3 10 8 3 4 4 11 14 12 17 17 12 10 10 5 3 9 13 12 14 20 16 15 11 5 6 8 9 10 10 10 11 12 11 10 10 9 11 12 14 12 11 9 8
4 5 8 8 4 9 14 14 14 17 15 13 9 16 16 21 20 14 10 6 3 13 16 18 20 11 9 9 8 6 7 8 10 11 13 13 13 13 12 11 11 12 14 15 17 15 13 10 10
8 11 9 4 8 10 6 4 16 9 10 8 7 10 19 20 17 15 11 5 7 11 16 15 15 14 9 10 10 9 9 9 10 12 13 13 13 13 13 12 13 14 15 22 22 17 14 12 11
12 12 12 12 23 21 14 8 3 9 6 8 2 6 14 15 17 12 14 6 9 6 12 14 15 15 25 14 11 9 10 11 11 12 12 13 12 12 12 11 12 12 11 22 25 19 17 15 13
12 12 13 22 21 18 13 11 9 1 2 3 2 6 10 12 11 11 10 15 13 11 15 16 14 7 13 16 11 9 9 10 12 12 13 12 12 10 8 10 10 12 9 9 25 25 19 17 14
8 10 13 18 17 13 13 13 12 8 5 3 3 7 5 5 8 14 15 13 15 16 19 21 19 17 13 17 12 10 11 11 12 12 13 14 15 13 8 9 12 11 6 13 18 26 25 20 16
4 6 15 12 10 5 8 7 6 9 9 9 6 7 7 5 6 6 13 21 21 20 21 25 22 22 20 15 15 7 10 11 13 13 13 14 14 13 13 11 14 12 6 7 21 30 26 19 18
13 11 10 6 5 6 4 7 7 7 12 7 7 7 6 8 10 9 10 12 18 24 26 27 29 31 23 19 16 23 20 11 13 13 14 14 13 15 18 15 13 12 8 9 17 26 23 21 18
7 8 9 4 5 1 3 6 11 12 8 6 8 9 9 10 11 12 12 11 13 16 15 23 33 32 30 24 21 17 18 15 13 14 14 14 15 14 16 13 11 12 8 9 20 29 23 21 18
5 8 11 7 4 6 4 6 7 10 12 10 7 8 7 9 10 10 13 13 13 14 14 16 17 19 28 31 24 18 10 14 15 16 17 17 17 17 15 16 17 14 9 13 12 30 26 17 16
9 14 8 6 4 5 10 10 9 12 11 11 13 11 8 10 11 11 12 13 10 12 16 19 20 18 23 27 29 22 20 20 11 16 18 18 19 20 20 20 19 21 11 10 13 13 15 19 16
7 11 3 2 2 9 11 7 9 7 10 11 12 12 12 16 18 17 15 18 17 13 13 15 20 26 21 28 28 29 24 25 26 17 18 19 19 22 22 21 18 21 16 9 17 19 20 20 19
9 11 8 7 0 6 9 12 8 6 3 8 13 17 19 18 19 21 21 21 21 21 18 16 15 19 24 23 24 27 30 25 25 21 20 20 21 22 22 20 20 21 17 13 11 24 24 23 22
9 6 7 6 3 8 12 6 7 1 3 11 17 23 23 24 22 22 23 26 26 26 26 24 19 16 18 25 28 24 25 25 27 28 28 27 22 18 23 21 21 20 23 20 7 14 32 27 25
9 4 4 2 6 10 14 8 7 4 8 15 19 24 24 23 21 22 24 24 23 27 31 32 30 24 19 18 24 31 25 24 22 25 26 26 22 19 17 24 25 23 23 26 13 14 32 33 28
9 4 5 13 12 16 17 12 11 10 14 19 22 24 22 23 25 22 20 17 17 17 23 33 35 33 29 24 20 23 27 27 25 23 22 25 24 21 19 19 22 23 23 22 21 16 25 37 31
2 4 9 8 12 12 15 9 11 15 16 20 23 24 23 24 25 25 24 24 19 17 19 23 31 37 34 32 26 21 28 29 29 30 24 23 25 20 18 20 17 25 27 23 23 19 26 41 34
11 13 13 8 11 19 19 10 11 14 18 19 18 18 22 22 22 24 24 24 24 21 19 21 25 31 34 33 31 28 22 27 27 31 30 27 26 25 20 18 20 24 32 27 24 18 22 41 36
12 13 9 5 11 15 14 11 11 14 17 22 25 27 25 24 23 19 25 27 25 23 18 18 23 27 32 32 31 32 27 20 29 24 31 32 31 26 23 17 17 18 26 21 20 10 19 24 34
12 12 14 11 11 11 7 13 17 18 20 22 27 30 26 28 26 25 31 34 34 29 22 17 19 22 27 30 28 29 33 27 25 27 30 35 32 30 25 22 21 24 12 13 20 16 12 19 4
18 9 11 11 9 9 8 14 19 19 21 23 28 24 27 27 26 27 29 35 36 36 28 21 18 18 20 28 26 25 29 33 28 30 32 38 34 35 31 27 28 22 15 16 22 19 7 16 7
22 15 5 6 6 4 5 8 16 15 20 25 23 23 26 27 27 28 30 31 35 36 36 34 22 18 16 23 23 21 24 31 31 31 31 32 30 36 37 36 32 25 25 22 18 20 21 21 13
23 21 7 3 4 5 6 8 8 12 16 21 24 28 27 28 29 28 29 33 35 37 37 36 29 20 17 18 20 17 17 27 33 31 28 40 31 31 36 37 36 30 27 24 23 21 21 19 20
20 20 8 10 10 4 3 6 12 11 21 25 26 25 26 26 24 27 31 34 35 37 36 35 31 23 18 18 17 15 15 19 30 34 31 32 38 31 34 35 38 34 30 29 26 23 20 20 15
18 24 3 3 2 5 4 14 14 19 26 27 25 22 23 23 26 32 33 38 35 36 36 35 30 25 20 18 19 14 13 15 22 33 35 32 37 38 36 39 33 36 38 31 29 27 23 22 23
15 18 5 3 3 10 28 9 12 24 24 26 23 23 23 27 32 28 30 39 34 35 35 30 28 25 21 19 19 15 11 13 16 26 33 35 33 37 44 36 39 37 34 37 34 31 29 23 21
11 14 8 5 9 6 7 14 22 17 25 26 20 23 28 31 31 33 31 31 31 33 27 28 27 24 22 20 18 16 11 11 13 18 28 34 35 34 33 36 36 37 39 42 34 33 32 28 23
10 12 6 7 3 5 10 14 17 23 29 29 22 25 22 23 26 29 28 29 26 23 23 23 21 21 21 19 17 15 10 9 11 15 21 29 35 37 35 33 36 37 34 34 37 34 36 30 29
11 9 6 7 5 4 3 16 17 27 33 36 32 31 28 30 23 21 20 22 21 21 18 20 20 21 21 18 14 13 9 7 9 12 18 23 29 34 37 37 35 35 37 40 37 41 37 36 33
12 13 12 5 4 10 11 16 19 39 35 35 34 30 31 26 24 23 21 19 18 19 20 21 22 21 19 15 9 10 9 4 5 10 15 21 24 28 34 37 38 35 34 36 41 40 35 38 37
Wind_Direction
73 85 91 135 149 139 63 52 44 171 119 77 133 152 118 125 129 125 128 161 163 201 194 205 216 184 251 229 230 230 217 197 187 185 181 180 180 179 184 185 188 188 189 194 195 189 187 191 191
79 97 104 134 118 104 77 72 95 106 108 92 91 105 114 102 108 130 124 111 185 205 192 217 213 233 192 199 204 198 203 205 196 184 182 181 187 184 191 196 199 202 199 198 213 201 199 193 182
91 100 104 83 61 73 91 115 84 117 139 123 117 120 108 107 122 119 135 111 191 186 204 208 210 191 200 231 236 200 195 202 201 195 191 190 193 196 199 204 210 210 210 208 208 202 203 199 192
99 113 87 109 88 76 75 67 187 115 115 149 196 87 120 121 139 134 148 179 201 240 204 183 198 230 236 224 234 208 208 197 200 202 199 193 192 189 196 205 217 213 241 229 211 209 204 205 193
129 87 103 98 87 80 72 65 51 146 201 98 140 144 111 142 151 141 147 177 210 203 225 202 193 199 204 206 199 203 212 210 203 203 206 197 192 192 212 219 219 223 246 228 205 208 202 203 190
106 86 106 105 101 88 64 40 14 2 23 2 108 143 152 145 169 191 194 178 214 223 218 207 212 214 200 259 243 209 210 217 216 208 211 204 205 201 211 227 234 239 251 284 235 217 206 195 188
91 68 86 100 103 97 42 21 350 354 331 302 296 283 267 248 215 220 212 210 215 215 221 218 225 226 247 230 237 256 230 222 219 217 210 216 220 214 202 214 219 239 276 291 233 198 202 187 178
44 55 96 74 71 63 357 314 329 309 301 281 271 279 267 271 269 250 253 257 236 230 226 224 232 229 223 239 218 276 283 247 236 224 220 212 222 219 220 201 214 235 275 269 222 181 177 186 183
34 71 77 63 335 38 276 300 305 327 322 264 261 239 249 256 260 263 264 261 262 253 242 234 230 241 235 225 237 221 234 254 243 242 232 228 220 219 232 209 217 216 250 240 236 169 179 183 190
357 46 56 50 10 350 316 305 297 292 291 288 274 262 268 275 279 283 282 281 267 260 253 249 258 254 230 226 219 206 218 237 240 246 240 227 224 210 213 218 210 214 229 223 192 184 171 189 202
37 62 66 77 350 321 297 274 255 269 269 268 272 277 285 297 304 297 291 286 279 258 248 251 253 239 242 218 207 219 241 245 259 246 239 235 223 215 209 212 210 195 212 232 226 195 178 204 208
72 88 48 97 281 303 301 288 281 265 267 279 291 303 317 315 311 311 304 290 291 284 265 253 246 249 225 240 236 232 227 231 247 253 242 236 230 221 212 214 213 216 205 215 216 203 218 209 213
31 116 107 100 24 338 347 310 326 325 291 294 303 309 315 320 315 316 319 316 303 297 289 279 276 262 250 232 226 227 231 227 220 236 238 239 232 228 220 216 212 215 205 201 220 220 214 223 219
135 151 126 103 3 351 337 323 310 143 279 290 299 306 312 316 321 325 322 320 312 297 291 287 282 288 273 253 235 224 219 216 222 220 225 235 232 243 201 219 215 204 206 209 233 252 203 221 225
150 255 139 29 334 328 336 287 301 253 273 292 301 309 314 318 320 323 328 329 328 318 304 293 283 279 284 278 255 234 228 214 212 217 225 232 229 234 249 246 211 210 210 218 222 216 208 207 222
160 203 335 325 319 314 314 291 282 277 282 291 299 305 308 317 328 334 335 333 328 324 315 303 293 285 279 281 269 251 232 225 220 220 223 231 238 227 233 230 225 209 206 208 215 231 213 207 214
51 348 340 340 313 320 330 330 302 294 293 295 296 300 316 331 334 335 336 334 333 328 317 306 300 291 286 279 271 261 254 225 228 227 227 228 233 224 222 234 220 214 217 200 222 232 215 204 208
42 31 26 37 338 335 327 304 268 279 295 303 304 311 317 318 326 330 336 337 336 332 327 314 306 298 291 283 272 260 255 246 223 228 233 234 231 230 225 234 249 236 217 232 211 224 239 213 207
45 38 49 360 332 328 310 291 275 281 286 298 307 312 311 316 326 336 340 337 339 337 321 310 304 302 298 286 271 257 252 252 229 216 223 234 232 226 224 225 229 212 213 178 201 200 257 178 217
28 26 30 7 360 339 302 284 282 277 283 300 312 314 318 326 330 332 343 342 336 334 328 307 295 295 297 289 271 255 246 246 230 237 212 221 222 228 219 217 224 219 219 238 211 198 215 210 231
21 14 27 352 326 0 332 274 271 281 285 296 303 301 306 314 318 326 340 347 342 338 333 326 305 291 281 280 274 258 240 238 236 241 236 216 222 222 220 226 231 209 188 206 201 197 218 203 255
14 351 325 4 293 294 331 291 282 283 288 294 290 295 303 309 313 320 325 335 339 337 334 331 321 308 275 273 280 271 244 230 234 230 229 220 222 219 218 217 224 221 201 201 198 204 213 214 229
10 349 266 308 283 259 293 286 275 301 310 315 303 292 300 309 313 314 318 324 331 331 331 329 326 319 290 276 286 286 264 230 224 228 224 220 225 221 219 220 218 219 215 197 203 207 214 208 226
1 357 260 276 291 265 301 344 289 299 316 323 318 298 298 300 304 312 315 319 324 325 328 330 323 319 314 285 288 288 281 248 223 222 224 218 220 225 224 224 218 217 213 208 204 205 204 200 201
358 14 345 330 333 240 294 314 304 320 323 325 318 305 295 296 301 308 305 309 315 321 324 324 319 314 311 303 287 289 284 266 237 220 220 219 216 220 226 228 222 217 216 209 208 210 209 203 207
353 21 59 276 279 288 305 238 309 322 330 331 308 304 297 301 305 304 308 310 317 316 316 319 320 317 308 309 292 289 282 273 254 230 219 219 219 218 229 222 220 222 219 215 217 211 217 212 205
351 358 355 263 268 298 272 286 311 328 342 340 309 308 312 311 312 313 314 317 311 312 315 319 318 320 313 309 304 284 285 271 258 245 225 219 221 220 218 220 220 224 222 216 222 214 214 217 217
336 343 341 341 356 303 289 287 302 333 348 346 335 330 316 313 312 309 308 307 310 314 319 318 323 326 321 314 308 282 282 274 260 248 238 224 220 221 223 220 222 221 210 221 217 223 220 220 224
315 318 333 317 258 209 295 295 321 341 344 342 339 334 335 327 318 321 313 311 310 322 325 331 336 332 321 313 304 278 281 272 265 247 243 236 227 220 222 224 222 220 223 220 217 220 223 219 226
294 293 302 308 280 252 273 277 332 337 337 335 332 331 327 324 323 316 315 318 326 335 329 340 339 332 319 313 295 280 282 264 268 259 240 236 236 227 221 223 225 223 222 225 222 228 225 225 219